Cloud_Cover
32 15 50 91 92 90 86 88 98 100 100 100 100 100 100 100 100 100 100 100 100 100 100 100 100 100 100 100 100 100 100 100 100 100 100 100 100 100 100 99 87 82 100
5 61 100 100 100 100 100 100 100 100 100 100 100 100 100 100 100 100 100 100 100 100 100 100 100 100 100 100 100 100 100 100 100 100 100 100 100 100 98 96 100 100 100
1 9 52 23 46 74 100 100 100 100 100 100 100 100 100 100 100 100 100 100 100 100 100 100 100 100 100 100 100 100 100 100 100 100 100 100 100 100 100 100 100 100 100
5 10 49 98 70 49 100 100 100 100 100 100 100 100 100 100 100 100 100 100 100 100 100 100 100 100 100 100 100 100 100 100 100 100 100 100 100 100 100 97 70 90 66
0 0 16 53 84 99 100 100 100 100 100 100 100 100 100 100 100 100 100 100 100 100 100 100 100 100 100 100 100 100 100 100 100 95 100 100 70 80 74 58 89 83 76
5 0 28 100 100 100 100 100 100 100 100 100 100 100 100 100 100 100 100 100 100 100 100 100 100 100 100 100 100 100 100 100 100 100 100 100 96 100 100 85 89 96 96
59 100 96 100 100 100 100 100 100 100 100 100 100 100 100 100 100 100 100 100 100 100 100 100 100 100 100 100 100 100 100 100 100 100 94 99 100 47 50 32 84 100 100
98 100 100 99 100 100 100 100 100 100 100 100 100 100 100 100 100 100 100 100 100 100 100 100 100 100 100 100 100 100 100 100 88 100 97 22 36 82 99 98 90 84 74
100 100 100 100 100 100 100 100 100 100 100 100 100 100 100 100 100 100 100 100 100 100 100 100 100 100 100 100 100 100 100 100 55 6 5 12 13 9 9 68 81 86 95
100 100 100 100 100 100 100 100 100 100 100 100 100 100 100 100 100 100 100 100 98 99 100 100 100 100 100 100 100 100 100 90 36 18 5 0 0 0 5 5 68 97 100
100 100 100 100 100 100 100 100 100 100 100 100 100 100 100 100 100 85 98 100 100 100 100 100 100 100 100 100 100 99 59 83 17 5 0 2 5 5 5 5 54 100 100
100 100 100 100 100 100 86 79 82 100 100 100 100 98 98 100 100 100 100 100 100 100 100 100 100 100 100 88 20 68 96 30 5 5 5 5 5 5 5 14 44 66 88
100 100 97 62 66 99 100 100 100 100 100 100 100 100 100 100 100 100 100 100 100 100 100 100 100 44 34 56 29 34 12 5 5 67 88 91 89 80 76 88 83 66 89
56 43 6 34 83 100 100 100 100 98 85 82 58 53 45 82 85 87 100 98 97 74 81 94 59 38 5 5 5 5 5 8 89 94 94 94 93 100 96 87 94 89 84
6 21 95 100 100 79 19 5 7 35 37 40 38 46 34 19 14 54 90 96 100 100 75 20 6 5 5 5 5 5 5 14 85 96 97 98 91 91 83 70 89 100 100
100 100 100 100 98 48 26 49 57 56 56 57 57 55 13 5 29 80 83 86 32 38 5 5 5 5 5 18 13 29 43 77 90 95 100 100 96 98 99 85 98 100 100
100 100 100 100 90 69 81 65 75 86 79 42 11 24 5 5 83 73 78 46 6 5 5 5 5 61 71 94 99 99 98 96 79 99 100 100 100 100 100 99 100 100 100
100 100 99 68 19 9 40 66 53 21 5 5 5 5 32 50 85 54 48 5 4 5 5 8 57 72 88 100 100 100 100 100 100 100 98 93 100 100 100 100 99 99 100
100 90 12 40 28 54 36 23 5 5 5 5 5 6 19 5 5 5 5 5 5 5 5 5 34 87 100 100 100 100 100 100 98 99 98 98 100 100 100 100 94 90 100
78 62 74 75 28 12 5 5 5 5 5 5 5 5 11 5 5 5 5 5 5 5 5 5 16 92 100 100 100 100 100 100 99 100 99 99 100 100 100 100 100 100 98
76 67 56 82 35 5 5 5 5 5 5 5 41 34 34 25 5 5 5 5 6 20 5 5 65 99 98 100 100 100 100 100 100 100 100 100 100 100 97 100 97 92 100
70 66 55 46 13 5 6 5 15 6 9 40 12 5 24 5 5 5 5 7 69 6 5 18 80 96 100 100 100 100 100 100 100 100 100 100 99 98 98 100 100 100 100
86 62 51 13 8 38 48 29 6 5 5 5 5 16 5 5 5 21 34 48 6 5 5 9 70 68 86 100 100 100 100 95 97 100 100 99 93 88 96 100 100 100 100
85 69 58 29 30 43 15 5 5 5 5 7 23 5 5 24 18 78 56 5 5 6 5 5 31 16 76 90 97 100 100 100 100 100 91 99 98 100 100 100 100 100 100
75 63 44 44 28 37 12 5 5 5 9 35 5 5 5 16 39 74 54 5 19 5 5 5 5 17 84 99 97 100 100 100 100 100 100 100 100 100 100 100 99 97 97
67 90 34 45 20 53 23 7 43 50 13 5 5 5 31 75 65 34 16 8 37 23 5 5 5 63 94 100 100 100 100 100 100 100 100 100 100 99 100 100 98 100 98